Regional Weather Roundup
Issued by NWS

Home | Current Version | Previous Version | Text Only | Print | Product List | Glossary On
Versions: 1 2 3 4 5 6 7 8 9 10 11 12 13 14 15 16 17 18 19 20 21 22 23 24 25 26 27 28 29 30 31 32 33 34 35 36 37 38 39 40 41 42 43 44 45 46 47 48 49 50
000
ASUS46 KLOX 301512
RWRCA

SOUTHERN CALIFORNIA WEATHER ROUNDUP
NATIONAL WEATHER SERVICE OXNARD CALIFORNIA
800 AM PDT THU OCT 30 2014

NOTE: "FAIR" INDICATES FEW OR NO CLOUDS BELOW 12,000 FEET WITH NO
SIGNIFICANT WEATHER AND/OR OBSTRUCTIONS TO VISIBILITY.

  -  STATIONS PRECEEDED BY AN ASTERISK (*) ARE NOT NWS OR FAA
     STATIONS AND ARE NOT SUBJECT TO NWS AND FAA QUALITY CONTROL.

CAZ041-042-087-301600-
LA AND ORANGE COUNTY COASTAL AREAS


CITY           SKY/WX    TMP DP  RH WIND       PRES   REMARKS
L.A. DOWNTOWN  CLEAR     61  53  75 CALM      29.98R
L.A. AIRPORT   PTCLDY    61  55  80 E5        29.98R
LONG BEACH     CLEAR     61  56  83 CALM      29.98R

CITY           SKY/WX    TMP DP  RH WIND       PRES   REMARKS
AVALON           N/A     55 N/A N/A MISG        N/A
FULLERTON      CLEAR     60  55  83 SE3       29.97R
*GETTY CENTER    N/A     66  41  39 N8          N/A
HAWTHORNE      CLEAR     63  56  78 CALM      29.98R
*LOS ALAMITOS  MOCLDY    56  55  94 CALM      29.98R
*REDONDO BEACH   N/A     57  54  90 CALM      29.97R
SANTA ANA      MOCLDY    64  56  75 CALM      29.98R
STA MONICA APT CLEAR     61  53  75 NE5       29.98R
*STA MON PIER    N/A     62  55  78 CALM      29.97R
TORRANCE       PTCLDY    61  55  82 S6        29.99R
*UCLA            N/A     64  50  59 N2        29.96R

$$

CAZ547-548-048-301600-
LA COUNTY VALLEYS AND INLAND EMPIRE


CITY           SKY/WX    TMP DP  RH WIND       PRES   REMARKS
BURBANK        CLEAR     60  40  47 W3        29.99R
VAN NUYS       PTCLDY    57  46  66 NW3       29.99S

CITY           SKY/WX    TMP DP  RH WIND       PRES   REMARKS
CORONA AIRPORT CLOUDY    49  44  83 CALM      30.01R
*CHATSWORTH      N/A     57  44  63 CALM      29.96S
CHINO          MOCLDY    54  50  86 CALM      30.01R
MARCH AFB      PTCLDY    51  43  72 CALM      30.02R
*NORTHRIDGE      N/A     55  45  67 CALM        N/A
ONTARIO        MOCLDY    62  44  51 CALM      30.00R
*PASADENA        N/A     63  48  59 CALM        N/A
POMONA         CLEAR     55  46  71 VRB5      30.03R
RIVERSIDE      MOCLDY    60  46  59 NE3       30.01R
SAN BERNARDINO MOCLDY    55  37  50 CALM      30.01R
*WHITEMAN AP   PTCLDY    59  39  47 CALM      30.02
*WOODLAND HILL   N/A     54  48  82 SE2         N/A

$$

CAZ054-055-301600-
LA AND SAN BERNARDINO COUNTY MOUNTAINS


CITY           SKY/WX    TMP DP  RH WIND       PRES   REMARKS
*BIG BEAR AIRP MOSUNNY   28   7  40 CALM      30.27R
*CHILAO          N/A     60  28  29 SE7         N/A
MT WILSON NWS    N/A     57  25  28 SE9         N/A
SANDBERG       PTCLDY    62  17  17 NE5       30.14S
*WARM SPRINGS    N/A     67  23  19 NE5         N/A

$$

CAZ028-029-059-060-099-301600-
ANTELOPE VALLEY AND SURROUNDING AREAS


CITY           SKY/WX    TMP DP  RH WIND       PRES   REMARKS
LANCASTER      PTCLDY    45  16  31 CALM      30.08R
PALMDALE       PTCLDY    50  24  36 SW3       30.08R

CITY           SKY/WX    TMP DP  RH WIND       PRES   REMARKS
29 PALMS       MOSUNNY   56  27  32 W7        30.13S
BARSTOW/DAGGET PTCLDY    54  20  26 W7        30.06R
BISHOP         PTCLDY    39  19  44 N5        30.16R
CHINA LAKE     MOCLDY    47  15  27 S6        30.07R
EDWARDS AFB    MOCLDY    46  14  27 W3        30.06R
MOJAVE         FAIR      55  18  22 NW5       30.09R
NEEDLES        SUNNY     65  22  19 CALM      30.03R
VICTORVILLE    PTCLDY    52  25  35 CALM      30.08R

$$

CAZ039-040-301600-
VENTURA AND SANTA BARBARA COUNTY COAST


CITY           SKY/WX    TMP DP  RH WIND       PRES   REMARKS
CAMARILLO      CLEAR     54  46  74 CALM      29.98R
OXNARD AIRPORT CLEAR     60  37  42 NE5       29.98R
*POINT MUGU    PTCLDY    58  49  72 CALM      29.99R
SBA APT/GOLETA PTCLDY    55  50  83 CALM      29.97R
*SANTA BARBARA   N/A     58  51  79 CALM      30.05R
*VENTURA         N/A     57  39  52 NE3       30.02S

$$

CAZ044-045-301600-
VENTURA COUNTY VALLEYS


CITY           SKY/WX    TMP DP  RH WIND       PRES   REMARKS
*SIMI VALLEY     N/A     56  42  58 CALM      29.96S
*OJAI            N/A     49  42  74 CALM      29.96R
*FILLMORE        N/A     48  42  78 CALM      29.90R

$$

CAZ053-301600-
VENTURA COUNTY MOUNTAINS


CITY           SKY/WX    TMP DP  RH WIND       PRES   REMARKS
*LOCKWOOD VLY    N/A     41  23  48 MISG        N/A
*ROSE VALLEY     N/A     34  25  69 MISG        N/A

$$

CAZ034-035-036-301600-
CENTRAL COAST AND SANTA YNEZ VALLEY


CITY           SKY/WX    TMP DP  RH WIND       PRES   REMARKS
SAN LUIS OBISP PTCLDY    54  42  64 CALM      29.96S
SANTA MARIA    MOCLDY    56  42  59 CALM      29.97R

CITY           SKY/WX    TMP DP  RH WIND       PRES   REMARKS
*CAL POLY SLO    N/A     54  43  66 CALM        N/A
*LOMPOC        MOCLDY    54  39  58 E6        29.96S
*PISMO BEACH     N/A     55  46  71 NE3       29.96S
*SANTA YNEZ    FAIR      54  36  50 CALM      29.98R

$$

CAZ037-038-051-301600-
SAN LUIS OBISPO COUNTY INTERIOR AND CUYAMA VALLEY


CITY           SKY/WX    TMP DP  RH WIND       PRES   REMARKS
*CUYAMA          N/A     51  30  45 SE3       29.97R
PASO ROBLES    PTCLDY    48  36  63 CALM      29.99R

$$

CAZ032-033-061-301600-
SOUTHERN DESERTS


CITY           SKY/WX    TMP DP  RH WIND       PRES   REMARKS
BLYTHE         SUNNY     62  28  27 S3        29.99R
IMPERIAL       PTSUNNY   62  34  35 W5        29.95R
PALM SPRINGS     N/A     67  31  26 MISG      30.00R
THERMAL        SUNNY     53  40  61 N3        29.95R

$$

ELSEWHERE ACROSS THE WESTERN UNITED STATES AND MEXICO


CITY           SKY/WX    TMP DP  RH WIND       PRES   REMARKS
DENVER, CO     MOSUNNY   47  27  45 SW7       30.39R
GRAND CANYON,  MOSUNNY   35  20  54 CALM      30.35R
HONOLULU, HI   PTCLDY    77  70  78 NE8       30.04S
KAHULUI, MAUI  CLEAR     73  66  78 NE8       30.05R
LAKE TAHOE, CA MOCLDY    31  25  78 S3        30.20S
LAS VEGAS, NV  MOSUNNY   61  22  22 S9        30.07R
MAMMOTH LAKES, FAIR      27  16  63 CALM      30.28R
MEXICO CITY, M MOSUNNY   48  48 100 E7        30.39R FOG
PHOENIX, AZ    MOSUNNY   71  41  33 E6        30.02R
PORTLAND, OR   LGT RAIN  57  54  89 E13       29.89F
RENO, NV       MOCLDY    39  32  76 CALM      30.15S
SALT LAKE CITY MOSUNNY   45  30  55 SE8       30.27S
SAN DIEGO, CA  PTSUNNY   63  55  75 SE5       30.00R
SAN FRANCISCO, CLOUDY    62  56  80 CALM      29.93S
SAN JOSE, CA   CLOUDY    58  47  66 CALM      29.93R
SEATTLE, WA    LGT RAIN  60  49  66 SE14      29.87F
TIJUANA, MEX   PTSUNNY   59  43  55 SE6       30.01S

$$

STATION/POSITION TIME  TEMP    WIND        PRES    VSBY  WAVE
                       AIR SEA DIR/SP/G                  HT/PER
                 (UTC) (F)     (DEG/KT/KT) (MB)    (MI)  (FT/S)
POINT ARGUELLO B NOT AVBL
WEST SANTA BARBA 1500   60 63  120/  6/ 10 1013.9R         7/11
POINT CONCEPTION NOT AVBL
EAST SANTA BARBA 1500   66 66  130/  4/  6 1014.9R
SANTA MONICA BAY 1500   66 68   CALM  /  2 1015.3R         3/12



USA.gov is the U.S. government's official web portal to all federal, state and local government web resources and services.